10
Livres de Poche.fr © Catalogue bibliographique
Index des auteurs


Bibliographie 10 (Editeur)

Voici la liste des livres répertoriés dans notre base et classés du plus récent au plus ancien pour 10

703 livres trouvés

V Titre Auteurs Editeur Date Pages ISBN Prix
Derniers témoins (+ d'infos) Svetlana Alexievitch 10 01/09/2016 408 p. 2264068833 8.4 €
Etre un homme (+ d'infos) Chimamanda Ngozi Adichie Rabih Alameddine Kurt Andersen 10 01/09/2016 286 p. 2264065761 7.5 €
Notre famille (+ d'infos) Akhil Sharma 10 18/08/2016 216 p. 2264067810 7.1 €
Prête a tout (+ d'infos) Joyce Maynard 10 04/05/2016 403 p. 2264067977 8.4 €
Lola Bensky (+ d'infos) Lily Brett 10 03/03/2016 310 p. 2264066253 7.5 €
Une femme simple et honnête (+ d'infos) Robert Goolrick 10 07/01/2016 380 p. 2264068272 7.1 €
Sommeil (+ d'infos) Haruki Murakami 10 04/11/2015 92 p. 2264068388 8.8 €
Crime d'honneur (+ d'infos) Elif Shafak 10 17/04/2014 - 2264060522 9.1 €
Les délices de Turquie (+ d'infos) Jan Wolkers 10 17/04/2014 - 2264061758 6.75 €
L'insoutenable légèreté des scones (+ d'infos) Alexander McCall Smith 10 20/03/2014 - 2264062010 8.1 €
La femme sans tête (+ d'infos) Viviane Moore 10 06/02/2014 310 p. 226405882X 8.1 €
Le Noël des masques (+ d'infos) Kate Sedley 10 06/02/2014 311 p. 2264062339 8.1 €
Printemps barbare (+ d'infos) Hector Tobar 10 06/02/2014 - 2264060158 9.6 €
Underground (+ d'infos) Haruki Murakami 10 06/02/2014 542 p. 2264062703 9.1 €
La fille de Baruch (+ d'infos) Laetitia Bourgeois 10 16/01/2014 - 2264062819 nc.
Les autres, c'est rien que des sales types (+ d'infos) Jacques-A Bertrand 10 16/01/2014 117 p. 2264055472 6.1 €
Je ferai de toi un homme heureux (+ d'infos) Anne Ragde 10 02/01/2014 305 p. 2264061847 8.1 €
L'année du volcan (+ d'infos) Jean-François Parot 10 02/01/2014 - 2264062029 8.8 €
Lucky girls (+ d'infos) Nell Freudenberger 10 02/01/2014 307 p. 2264062282 7.5 €
Open City (+ d'infos) Teju Cole 10 01/01/2014 330 p. 2264061006 8.1 €
Lettres d'une vie (+ d'infos) Marquis de Sade 10 28/12/2013 259 p. 2264047607 7.5 €
La fille de l'hiver (+ d'infos) Eowyn Ivey 10 05/12/2013 450 p. 2264060980 8.4 €
La terre fredonne en si bémol (+ d'infos) Mari Strachan 10 05/12/2013 357 p. 2264052902 8.1 €
Les trois erreurs de ma vie (+ d'infos) Chetan Bhagat 10 05/12/2013 333 p. 2264053372 7.5 €
Saint Michel, priez pour eux ! (+ d'infos) Jean-Pierre Alaux 10 05/12/2013 211 p. 2264061243 7.1 €
Blue Gene (+ d'infos) Joey Goebel 10 21/11/2013 619 p. 2264058293 8.65 €
Into wine : Un invitation au plaisir (+ d'infos) Olivier Magny 10 21/11/2013 250 p. 2264062436 12.45 €
Le monogramme de perles (+ d'infos) Josephine Tey Carole Hanna 10 21/11/2013 304 p. 226406059X 7.5 €
Les accusées (+ d'infos) Charlotte Rogan 10 21/11/2013 283 p. 2264060999 7.13 €
Les catacombes (+ d'infos) Toby Ball 10 21/11/2013 427 p. 2264054263 8.8 €
Sur les jantes (+ d'infos) Thomas McGuane 10 21/11/2013 502 p. 2264059443 8.65 €
Weekend à Portmeirion (+ d'infos) Nicola Upson 10 21/11/2013 499 p. 226406062X 8.8 €
Paris vs New York : L'intégrale (+ d'infos) Vahram Muratyan 10 14/11/2013 - 2264062533 25 €
Ce regard en arrière (+ d'infos) Nuala O'Faolain 10 07/11/2013 405 p. 2264056339 8.8 €
La boutique de la seconde chance (+ d'infos) Michael Zadoorian 10 07/11/2013 310 p. 226406093X 7.5 €
Le spectacle de Noël (+ d'infos) Anne Perry 10 07/11/2013 187 p. 2264060751 nc.
Les attaques de la boulangerie (+ d'infos) Haruki Murakami 10 07/11/2013 72 p. 2264061294 8.4 €
Nouveaux contes de Noël : La promesse de Noël ; La Révélation de Noël ; Un Noël Plein d'Espoir ; L'Odyssée de Noël (+ d'infos) Anne Perry 10 07/11/2013 540 p. 2264062126 nc.
la trilogie des Neshov : Coffret en 3 volumes : La terre des mensonges ; La ferme des Neshov ; L'héritage impossible (+ d'infos) Anne Ragde 10 07/11/2013 1050 p. 2264062444 25.2 €
Grand homme : Mort et vie à Palm Island (+ d'infos) Chloe Hooper 10 17/10/2013 377 p. 2264051779 8.4 €
Je m'appelle lotte et j'ai huit ans (+ d'infos) Anne Ragde 10 17/10/2013 309 p. 2264060018 8.4 €
L'attrapeur de libellules (+ d'infos) Boris Akounine 10 17/10/2013 882 p. 2264060212 9.6 €
Le cavalier blanc (+ d'infos) Peter Tremayne 10 17/10/2013 - 2264060506 8.1 €
Le garçon qui voulait devenir un être humain (+ d'infos) Jorn Riel 10 17/10/2013 232 p. 2264059052 6.75 €
So much pretty (+ d'infos) Cara Hoffman 10 17/10/2013 379 p. 2264061251 7.98 €
Ceux qui restent (+ d'infos) Jane Casey 10 03/10/2013 521 p. 2264061278 8.8 €
Home (+ d'infos) Toni Morrison 10 03/10/2013 142 p. 226405879X 6.1 €
La mort n'est pas un jeu d'enfant (+ d'infos) Alan Bradley 10 03/10/2013 359 p. 2264061707 7.5 €
Les lointains tourments de la jeunesse (+ d'infos) Alexander McCall Smith 10 03/10/2013 261 p. 2264060255 7.5 €
Les règles du jeu (+ d'infos) Amor Towles 10 03/10/2013 473 p. 226405901X 8.8 €
Que viva la musica ! (+ d'infos) Andres Caicedo 10 03/10/2013 259 p. 2264060182 7.5 €
Certaines n'avaient jamais vu la mer (+ d'infos) Julie Otsuka 10 19/09/2013 143 p. 2264060530 6.6 €
Ecarlate (+ d'infos) Hillary Jordan 10 19/09/2013 428 p. 2264060069 8.8 €
La fabrique des illusions (+ d'infos) Jonathan Dee 10 19/09/2013 560 p. 226406045X 9.1 €
Oscar Wilde et le mystère de Reading (+ d'infos) Gyles Brandreth 10 19/09/2013 401 p. 2264051264 8.1 €
Triple crossing (+ d'infos) Sebastian Rotella 10 19/09/2013 500 p. 2264060409 8.36 €
Oscar Wilde et le cadavre souriant (+ d'infos) Gyles Brandreth 10 10/09/2013 414 p. 2264062630 8.1 €
Oscar Wilde et le jeu de la mort (+ d'infos) Gyles Brandreth 10 10/09/2013 460 p. 2264062622 7.7 €
Oscar Wilde et le meurtre aux chandelles (+ d'infos) Gyles Brandreth 10 10/09/2013 - 2264062614 7.5 €
Bois sauvage (+ d'infos) Jesmyn Ward 10 05/09/2013 309 p. 2264060190 8.1 €
Gains (+ d'infos) Richard Powers 10 05/09/2013 618 p. 226405848X 9.9 €
Galveston (+ d'infos) Nic Pizzolatto 10 05/09/2013 306 p. 2264057289 8.1 €
La vengeance volée (+ d'infos) Irène Chauvy 10 05/09/2013 262 p. 2264060395 7.5 €
Mémoires gelées (+ d'infos) Camilla Ceder 10 05/09/2013 400 p. 2264054328 8.4 €
Mohawk (+ d'infos) Richard Russo 10 14/08/2013 454 p. 2264058714 8.8 €
Quand j'étais Jane Eyre (+ d'infos) Sheila Kohler 10 14/08/2013 238 p. 2264060174 7.5 €
Quand la lumière décline (+ d'infos) Eugen Ruge 10 14/08/2013 448 p. 2264058412 8.8 €
Une question de justice (+ d'infos) Anne Perry 10 14/08/2013 402 p. 2264061030 8.4 €
L'arbre du paradis : La pierre de vie - Le rameau vert et la graine écarlate (+ d'infos) Edith Pargeter 10 04/07/2013 989 p. 2264061227 13.9 €
La carte du monde invisible (+ d'infos) Tash Aw 10 04/07/2013 478 p. 2264050330 8.8 €
La légende de Coldstone (+ d'infos) Patricia Wentworth 10 04/07/2013 330 p. 2264058005 8.1 €
La sybille et le marquis : Une aventure de Marie-Adélaïde Lenormand (+ d'infos) Nicolas Bouchard 10 04/07/2013 332 p. 2264059575 7.98 €
Les chroniques d'Edimbourg : 44 scotland street - Edimbourg express - l'amour en kit (+ d'infos) Alexander McCall Smith 10 04/07/2013 1113 p. 2264059354 14.9 €
Petits arrangements avec le mariage (+ d'infos) Moni Mohsin 10 04/07/2013 283 p. 2264060921 7.13 €
La galerie du rossignol (+ d'infos) Paul Doherty Paul Harding 10 20/06/2013 249 p. 2264061510 7.5 €
La part de l'homme (+ d'infos) Kari Hotakainen 10 20/06/2013 284 p. 2264055952 6.75 €
La pierre de sang (+ d'infos) Paul Doherty 10 20/06/2013 331 p. 2264059532 8.1 €
Le donjon du bourreau (+ d'infos) Paul Doherty 10 20/06/2013 286 p. 2264061529 7.5 €
Le mystère de Roccapendente (+ d'infos) Marco Malvaldi 10 20/06/2013 208 p. 2264059427 7.1 €
Les ailes de l'ange (+ d'infos) Jenny Wingfield 10 20/06/2013 424 p. 2264056215 8.36 €
Sherry Cracker et les sept voleurs (+ d'infos) D. J. Connell 10 20/06/2013 329 p. 2264060085 7.5 €
Un intérêt particulier pour les morts (+ d'infos) Ann Granger 10 20/06/2013 379 p. 2264058730 7.5 €
Effets secondaires probables (+ d'infos) Augusten Burroughs 10 06/06/2013 309 p. 2264049529 8.1 €
Le trésor de Tintern (+ d'infos) Kate Sedley 10 06/06/2013 310 p. 226406028X 8.1 €
Les séparées (+ d'infos) Kéthévane Davrichewy 10 06/06/2013 163 p. 2264059281 6.6 €
Wilt, Tome 5 : Comment enseigner l'histoire à un ado dégénéré en repoussant les assauts d'une nymphomane alcoolique (+ d'infos) Tom Sharpe 10 06/06/2013 262 p. 2264060042 7.5 €
Jeu de pistes (+ d'infos) Marcel Theroux 10 16/05/2013 288 p. 2264054565 7.5 €
Les assiégés du mont Anis (+ d'infos) Laetitia Bourgeois 10 16/05/2013 288 p. 2264061219 7.5 €
Sacrilège (+ d'infos) S-J Parris 10 16/05/2013 576 p. 2264060115 9.1 €
Les filles de l'ouragan (+ d'infos) Joyce Maynard 10 11/05/2013 360 p. 2264059044 8.1 €
La dernière conquète du major Pettigrew (+ d'infos) Helen Simonson 10 02/05/2013 541 p. 2264058846 8.8 €
Le contenu du silence (+ d'infos) Lucía Etxebarria 10 02/05/2013 380 p. 2264058307 8.4 €
Les étranges talents de Flavia de Luce (+ d'infos) Alan Bradley 10 02/05/2013 378 p. 2264061324 7.5 €
Sept ans (+ d'infos) Peter Stamm 10 02/05/2013 259 p. 2264059435 7.5 €
L'oiseau Canadèche (+ d'infos) Jim Dodge 10 18/04/2013 114 p. 2264059540 4.66 €
Lady yoga en posture critique (+ d'infos) Rain Mitchell 10 18/04/2013 334 p. 2264055944 8.4 €
Mauvais oeil (+ d'infos) Jason Goodwin 10 18/04/2013 381 p. 2264060298 8.36 €
Not fade away (+ d'infos) Jim Dodge 10 18/04/2013 427 p. 2264059559 8.4 €
La cote 400 (+ d'infos) Sophie Divry 10 04/04/2013 94 p. 2264055693 6.6 €
Le quadrille des maudits : Une enquête de François-Claudius Simon (+ d'infos) Guillaume Prévost 10 04/04/2013 377 p. 2264060875 8.1 €
Là est la danse (+ d'infos) Amy Sackville 10 04/04/2013 403 p. 2264058226 8.4 €
Rescapé du camp 14 : De l'enfer nord-coréen à la liberté (+ d'infos) Blaine Harden 10 04/04/2013 288 p. 2264059567 7.5 €
Vies de mafia (+ d'infos) Delphine Saubaber Henri Haget 10 04/04/2013 250 p. 2264057874 7.13 €
Bryanston mews (+ d'infos) Anne Perry 10 21/03/2013 471 p. 2264056762 9.1 €
L'appel des ombres (+ d'infos) Belinda Bauer 10 21/03/2013 428 p. 2264060891 8.8 €
Un océan de pavots (+ d'infos) Amitav Ghosh 10 21/03/2013 665 p. 2264053453 9.9 €
Crépuscule (+ d'infos) Michael Cunningham 10 07/03/2013 285 p. 2264059311 7.5 €
Facebook (+ d'infos) Fabien Benoit 10 07/03/2013 136 p. 2264058404 6.27 €
Jardin d'hiver (+ d'infos) Thierry Dancourt 10 07/03/2013 162 p. 2264057297 6.27 €
Jours toxiques (+ d'infos) Roxana Robinson 10 07/03/2013 589 p. 2264054050 9.6 €
L'agenda des plaisirs (+ d'infos) Abha Dawesar 10 07/03/2013 305 p. 2264058285 8.1 €
L'école de détectives privés du Limpopo (+ d'infos) Alexander McCall Smith 10 07/03/2013 332 p. 2264060093 8.4 €
La solitude (+ d'infos) Anne de Malleray 10 07/03/2013 135 p. 2264058390 6.6 €
La violence (+ d'infos) Cécile Collette 10 07/03/2013 139 p. 2264058382 6.27 €
Lady Gaga (+ d'infos) Stéphane Loignon 10 07/03/2013 120 p. 2264058374 6.6 €
Au guet-apens : Chroniques de la justice pénale ordinaire (+ d'infos) Maître Mô 10 21/02/2013 340 p. 2264058706 8.1 €
Cette main qui a pris la mienne (+ d'infos) Maggie O'Farrell 10 21/02/2013 403 p. 2264056819 8.4 €
Le sang des bistanclaques (+ d'infos) Odile Bouhier 10 21/02/2013 257 p. 226405929X 7.5 €
Sang dessus dessous (+ d'infos) Claude Izner 10 21/02/2013 254 p. 226405932X 7.5 €
1Q84 : Livre 3, Octobre-décembre (+ d'infos) Haruki Murakami 10 07/02/2013 620 p. 2264059265 9.6 €
Hanna était seule à la maison (+ d'infos) Carin Gerhardsen 10 07/02/2013 358 p. 2264060247 7.5 €
La fête du siècle (+ d'infos) Niccolo Ammaniti 10 07/02/2013 357 p. 2264056827 8.4 €
La merditude des choses (+ d'infos) Dimitri Verhulst 10 07/02/2013 215 p. 2264057300 7.5 €
Un calice de sang (+ d'infos) Peter Tremayne 10 07/02/2013 377 p. 2264055790 8.1 €
La tour d'arsenic (+ d'infos) Anne Ragde 10 17/01/2013 499 p. 2264058471 9.1 €
Le Faucon et l'Hirondelle (+ d'infos) Boris Akounine 10 17/01/2013 637 p. 2264060638 nc.
Le dernier d'entre nous (+ d'infos) Neil Gordon 10 17/01/2013 574 p. 2264059605 9.12 €
Le dernier stade de la soif (+ d'infos) Frederick Exley 10 17/01/2013 454 p. 2264057432 8.4 €
Le livre noir de la psychanalyse : Vivre, penser et aller mieux sans Freud (+ d'infos) Catherine Meyer Collectif 10 17/01/2013 644 p. 2264059478 11.9 €
Brasiers (+ d'infos) Derek Nikitas 10 03/01/2013 453 p. 2264055669 8.36 €
L'enquête russe (+ d'infos) Jean-François Parot 10 03/01/2013 - 2264059060 8.8 €
Le dîner (+ d'infos) Herman Koch 10 03/01/2013 355 p. 2264057815 8.1 €
Le temps de la prophétie (+ d'infos) S-J Parris 10 03/01/2013 501 p. 2264060220 9.1 €
Une bonne raison de se tuer (+ d'infos) Philippe Besson 10 03/01/2013 274 p. 2264059109 7.5 €
L'espion de Sobek (+ d'infos) Paul Doherty 10 06/12/2012 281 p. 2264058838 8.1 €
La cuisine des écrivains (+ d'infos) Johan Faerber Elsa Delachair 10 06/12/2012 258 p. 2264055510 nc.
Le pas de l'adieu (+ d'infos) Giovanni Arpino 10 06/12/2012 165 p. 2264056371 6.75 €
Le sabre du condamné (+ d'infos) I-J Parker 10 22/11/2012 502 p. 2264057270 8.8 €
Là où vous ne serez pas (+ d'infos) Horacio Castellanos Moya 10 22/11/2012 262 p. 2264049596 8.1 €
Grands reporters : Prix Albert Londres, 100 reportages d'exception de 1950 à aujourd'hui (+ d'infos) Collectif 10 08/11/2012 816 p. 2264058870 14.5 €
L'odyssée de Noël (+ d'infos) Anne Perry 10 08/11/2012 - 2264056746 nc.
La disparue de San Juan (+ d'infos) Philippe Broussard 10 08/11/2012 434 p. 2264056614 8.36 €
La liste (+ d'infos) Julien Gosselin Johann Trümmel Pierre Martin 10 08/11/2012 272 p. 2264057823 13.9 €
La tyrannie de l'arc-en-ciel, Tome 1 : La route de Haut-Safran (+ d'infos) Jasper Fforde 10 08/11/2012 643 p. 226405946X 9.6 €
Le polygame solitaire (+ d'infos) Brady Udall 10 08/11/2012 - 226405462X nc.
Brooklyn (+ d'infos) Colm Toibin 10 18/10/2012 - 2264056487 8.1 €
Cent ans (+ d'infos) Herbjorg Wassmo 10 18/10/2012 600 p. 2264055464 9.6 €
Le ciel se trouve sur terre (+ d'infos) Ake Edwardson 10 18/10/2012 503 p. 2264057866 8.65 €
Le projet Shiro (+ d'infos) David S. Khara 10 18/10/2012 - 2264054654 7.5 €
Oscar wilde et les crimes du Vatican (+ d'infos) Gyles Brandreth 10 18/10/2012 - 2264051256 8.1 €
Danser le ciel (+ d'infos) Viviane Moore 10 04/10/2012 - 2264057343 nc.
Et l'ange de Reims grimaça (+ d'infos) Jean-Pierre Alaux 10 04/10/2012 211 p. 2264057114 6.75 €
Le naufrage de la Vesle Mari et autres racontars (+ d'infos) Jorn Riel 10 04/10/2012 214 p. 226405347X 7.1 €
Les charmants travers de nos semblables (+ d'infos) Alexander McCall Smith 10 04/10/2012 261 p. 2264058978 8.1 €
Une vie pleine : Mon histoire d'amour avec un homme et une ferme (+ d'infos) Kristin Kimball 10 04/10/2012 280 p. 2264058951 7.5 €
1Q84, Livre 1 : Avril-Juin (+ d'infos) Haruki Murakami 10 20/09/2012 - 2264057882 9.6 €
1Q84, Livre 2 : Juillet-Septembre (+ d'infos) Haruki Murakami 10 20/09/2012 - 2264057890 9.6 €
Dire son nom (+ d'infos) Francisco Goldman 10 20/09/2012 474 p. 2264055499 8.36 €
Minuit, impasse du cadran (+ d'infos) Claude Izner 10 20/09/2012 370 p. 2264054670 8.8 €
Ladies and gentlemen (+ d'infos) Adam Ross 10 06/09/2012 238 p. 2264058196 19.9 €
Les Ombres de Kittur (+ d'infos) Aravind Adiga 10 06/09/2012 384 p. 2264057327 8.4 €
Mr Peanut (+ d'infos) Adam Ross 10 06/09/2012 576 p. 2264058943 9.12 €
Natasha et autres histoires (+ d'infos) David Bezmozgis 10 06/09/2012 168 p. 2264053992 6.27 €
Une mer sans soleil (+ d'infos) Anne Perry 10 06/09/2012 525 p. 2264054018 8.8 €
Générosité : Un perfectionnement (+ d'infos) Richard Powers 10 16/08/2012 473 p. 2264050969 9.1 €
La maison du Loch (+ d'infos) Patricia Wentworth 10 16/08/2012 - 2264058447 8.1 €
Les privilèges (+ d'infos) Jonathan Dee 10 16/08/2012 355 p. 2264055715 8.1 €
Les trois lumières (+ d'infos) Claire Keegan 10 16/08/2012 87 p. 2264056134 6.1 €
Nos cheveux blanchiront avec nos yeux (+ d'infos) Thomas Vinau 10 16/08/2012 91 p. 226405896X nc.
Mansfield park (+ d'infos) Jane Austen 10 20/07/2012 645 p. 2264058781 8.8 €
Des racontars arctiques (+ d'infos) Jorn Riel 10 05/07/2012 571 p. 226405851X 12.26 €
En cuisine (+ d'infos) Monica Ali 10 05/07/2012 648 p. 2264053909 10.2 €
La trilogie de Matsuyama Kaze : La promesse du samouraï ; Vengeance au palais de Jade ; Menaces sur le shogun (+ d'infos) Dale Furutani 10 05/07/2012 794 p. 2264058501 nc.
Les princes vagabonds (+ d'infos) Michael Chabon 10 05/07/2012 203 p. 2264054255 7.1 €
Muléum (+ d'infos) Erlend Loe 10 05/07/2012 209 p. 2264053461 7.13 €
Istanbul était un conte (+ d'infos) Mario Levi 10 21/06/2012 790 p. 226405574X 9.69 €
Le parrain de Katmandou (+ d'infos) John Burdett 10 21/06/2012 471 p. 2264056207 8.8 €
Les nouvelles affaires du juge Ti (+ d'infos) Xiao Di Zhu 10 21/06/2012 285 p. 2264057963 6.75 €
Nous, les noyés (+ d'infos) Carsten Jensen 10 21/06/2012 1001 p. 2264053313 11.9 €
Julian Corkle est un fieffé menteur (+ d'infos) D. J. Connell 10 07/06/2012 400 p. 2264055413 8.36 €
Les Filles d'Albion (+ d'infos) Kate Sedley 10 07/06/2012 328 p. 2264056932 8.1 €
Les chroniques de Lady Yoga (+ d'infos) Rain Mitchell 10 07/06/2012 333 p. 2264054506 7.98 €
Les sortilèges du Cap Cod (+ d'infos) Richard Russo 10 07/06/2012 325 p. 2264053496 8.4 €
Vienne la nuit, sonne l'heure (+ d'infos) Jean-Luc Bizien 10 07/06/2012 382 p. 2264051299 8.4 €
Bons baisers de Cora Sledge (+ d'infos) Leslie Larson 10 16/05/2012 477 p. 2264057955 8.8 €
Les derniers flamants de Bombay (+ d'infos) Siddharth Dhanvant Shanghvi 10 16/05/2012 498 p. 2264054603 8.65 €
Zona frigida (+ d'infos) Anne B Ragde 10 10/05/2012 356 p. 226405624X 8.4 €
Le Traité des supplices (+ d'infos) Nicolas Bouchard 10 03/05/2012 312 p. 2264052031 8.4 €
La maison des célibataires : Une petite histoire groenlandaise (+ d'infos) Jorn Riel 10 27/04/2012 75 p. 2264059362 5.8 €
Charivari (+ d'infos) Nancy Mitford 10 19/04/2012 260 p. 226405672X 7.5 €
En attendant Babylone (+ d'infos) Amanda Boyden 10 19/04/2012 432 p. 2264054492 7.98 €
Le chat qui déplacait des montagnes (+ d'infos) Lilian Jackson Braun 10 19/04/2012 286 p. 226405686X 6.75 €
Le violoncelliste de Sarajevo (+ d'infos) Steven Galloway 10 19/04/2012 238 p. 2264051361 6.75 €
L'(autre) homme de ma vie (+ d'infos) Stephen McCauley 10 05/04/2012 306 p. 2264053984 8.1 €
La colombe de la mort (+ d'infos) Peter Tremayne 10 05/04/2012 384 p. 2264055804 8.1 €
Les foudroyés (+ d'infos) Paul Harding 10 05/04/2012 189 p. 2264054581 7.1 €
L'objet de mon affection (+ d'infos) Stephen McCauley 10 02/04/2012 382 p. 2264038292 8.1 €
L'art de l'insulte : Une anthologie littéraire (+ d'infos) Elsa Delachair 10 15/03/2012 212 p. 2264055529 7.13 €
Le choix des désordres (+ d'infos) Pierre d' Ovidio 10 15/03/2012 285 p. 2264053208 7.13 €
Le fiasco du labrador et autres nouvelles (+ d'infos) Margaret Atwood 10 15/03/2012 285 p. 2264054115 7.13 €
Léa (+ d'infos) Pascal Mercier 10 15/03/2012 285 p. 2264054077 7.5 €
Tijuana Straits (+ d'infos) Kem Nunn 10 15/03/2012 380 p. 2264055391 8.1 €
En attendant Robert Capa (+ d'infos) Susana Fortes 10 01/03/2012 237 p. 2264055294 7.5 €
La gifle (+ d'infos) Christos Tsiolkas 10 01/03/2012 593 p. 2264055405 9.6 €
Le mariage avait lieu un samedi (+ d'infos) Alexander McCall Smith 10 01/03/2012 288 p. 2264056401 7.5 €
Les voix du Pamano (+ d'infos) Jaume Cabré 10 01/03/2012 763 p. 2264051787 10.2 €
Février (+ d'infos) Lisa Moore 10 16/02/2012 331 p. 2264052228 7.98 €
La maison en pain d'épices (+ d'infos) Carin Gerhardsen 10 16/02/2012 334 p. 2264057068 7.5 €
Le livre des jours (+ d'infos) Michael Cunningham 10 16/02/2012 439 p. 226405719X 8.4 €
Le second fils (+ d'infos) Jonathan Rabb 10 16/02/2012 432 p. 2264049758 8.36 €
Meurtre dans un jardin indien (+ d'infos) Vikas Swarup 10 16/02/2012 600 p. 226405333X 9.6 €
Crépuscule irlandais (+ d'infos) Edna O'Brien 10 02/02/2012 382 p. 2264054085 8.1 €
L'herbe du diable et la petite fumée : Une voie Yaqui de la connaissance (+ d'infos) Carlos Castaneda 10 02/02/2012 335 p. 226405834X 7.5 €
Le Serpent de feu (+ d'infos) Fabrice Bourland 10 02/02/2012 309 p. 226405235X 6.74 €
Un jour (+ d'infos) David Nicholls 10 02/02/2012 621 p. 2264055758 9.6 €
L'heritage impossible tome 3 (+ d'infos) Anne B Ragde 10 19/01/2012 - 226405543X 8.4 €
Les petites guerres (+ d'infos) Sadie Jones 10 19/01/2012 380 p. 2264053070 18.34 €
Dorchester Terrace (+ d'infos) Anne Perry 10 05/01/2012 480 p. 2264056037 9.1 €
En l'absence des hommes (+ d'infos) Philippe Besson 10 05/01/2012 215 p. 2264056851 7.1 €
Et devant moi, le monde (+ d'infos) Joyce Maynard 10 05/01/2012 501 p. 2264055421 9.1 €
Glamorama (+ d'infos) Bret Easton Ellis 10 05/01/2012 786 p. 2264057149 10.2 €
Le prix de l'hérésie (+ d'infos) S-J Parris 10 05/01/2012 574 p. 2264056452 9.1 €
Le tristement célèbre Johnny Lim (+ d'infos) Tash Aw 10 05/01/2012 456 p. 2264050314 9.1 €
Raison et sentiments (+ d'infos) Jane Austen 10 05/01/2012 384 p. 2264058250 6.6 €
Retour parmi les hommes (+ d'infos) Philippe Besson 10 05/01/2012 180 p. 2264056843 7.1 €
Suite(s) impériale(s) (+ d'infos) Bret Easton Ellis 10 05/01/2012 186 p. 2264054530 7.1 €
Orgueil et préjugés (+ d'infos) Jane Austen Collectif 10 03/01/2012 384 p. 2264058242 6.6 €
Le chat qui connaissait un cardinal (+ d'infos) Lilian Jackson Braun 10 01/01/2012 284 p. 2264057076 7.5 €
Dessine-moi un parisien (+ d'infos) Olivier Magny 10 01/12/2011 238 p. 2264056355 12.45 €
L'honneur de Sartine (+ d'infos) Jean-François Parot 10 01/12/2011 471 p. 2264054336 8.8 €
Le chat qui vivait haut (+ d'infos) Lilian Jackson Braun 10 01/12/2011 280 p. 2264056606 7.13 €
Le temps des métamorphoses (+ d'infos) Poppy Adams 10 01/12/2011 381 p. 2264050993 7.98 €
Sonate cartésienne et autres récits (+ d'infos) William H Gass 10 01/12/2011 380 p. 2264050985 nc.
Descente aux grands crus (+ d'infos) Paul Torday 10 17/11/2011 332 p. 226405137X 7.7 €
L'énigme du paravent des enfers : Une enquête de Sugawara Akitada (+ d'infos) I. J. Parker 10 17/11/2011 504 p. 2264054131 8.8 €
Le chat qui parlait aux fantômes (+ d'infos) Lilian Jackson Braun 10 17/11/2011 284 p. 2264056592 7.1 €
Perdu dans un supermarché (+ d'infos) Svetislav Basara 10 17/11/2011 178 p. 226404909X 6.75 €
Au nord du monde (+ d'infos) Marcel Theroux 10 03/11/2011 347 p. 2264052155 8.4 €
Je suis une créature émotionnelle (+ d'infos) Eve Ensler 10 03/11/2011 178 p. 2264055537 15.9 €
L'empoisonneur de Ptah (+ d'infos) Paul Doherty 10 03/11/2011 309 p. 2264055502 8.1 €
Le bal des vipères (+ d'infos) Horacio Castellanos Moya 10 03/11/2011 160 p. 2264048409 7.5 €
Le projet Bleiberg (+ d'infos) David S. Khara 10 03/11/2011 308 p. 2264054646 7.5 €
Un noël plein d'espoir (+ d'infos) Anne Perry Pascale Haas 10 03/11/2011 152 p. 226405302X nc.
L'importance d'être reconnaissant (+ d'infos) Alexander McCall Smith 10 20/10/2011 297 p. 2264051817 8.4 €
L'indésirable (+ d'infos) Sarah Waters 10 20/10/2011 645 p. 2264052376 10.65 €
Zébulon (+ d'infos) Rudolph Wurlitzer 10 20/10/2011 346 p. 2264053216 7.98 €
L'année du jardinier (+ d'infos) Karel Capek 10 06/10/2011 153 p. 2264056010 6.6 €
L'heure d'avant (+ d'infos) Colin Harrison 10 06/10/2011 213 p. 2264054549 7.1 €
Le cherche-bonheur (+ d'infos) Michael Zadoorian 10 06/10/2011 283 p. 2264052449 7.5 €
Le dernier hiver (+ d'infos) Ake Edwardson 10 06/10/2011 480 p. 2264054344 nc.
Oscar Wilde et le nid de vipères (+ d'infos) Gyles Brandreth 10 06/10/2011 474 p. 2264051248 8.4 €
Requiem sous le Rialto (+ d'infos) Nicolas Remin 10 06/10/2011 382 p. 2264053380 7.69 €
Un amour exclusif (+ d'infos) Johanna Adorjàn 10 06/10/2011 184 p. 2264051655 6.75 €
Frères de sang (+ d'infos) Richard Price 10 15/09/2011 390 p. 226405414X 8.4 €
L'antarctique (+ d'infos) Claire Keegan 10 15/09/2011 215 p. 2264053348 7.5 €
Petite musique de la mort (+ d'infos) Frank Tallis 10 15/09/2011 378 p. 2264048050 8.4 €
L'écrivain et l'autre (+ d'infos) Carlos Liscano 10 01/09/2011 211 p. 2264052570 7.5 €
Une âme perdue (+ d'infos) Giovanni Arpino 10 01/09/2011 136 p. 2264052015 6.75 €
Après le tremblement de terre (+ d'infos) Haruki Murakami 10 25/08/2011 157 p. 2264056185 6.6 €
Au sud de la frontière, à l'ouest du soleil (+ d'infos) Haruki Murakami 10 25/08/2011 259 p. 2264056177 7.5 €
Kafka sur le rivage (+ d'infos) Haruki Murakami 10 25/08/2011 637 p. 2264056169 9.6 €
La ballade de l'impossible (+ d'infos) Haruki Murakami 10 25/08/2011 445 p. 2264056002 8.4 €
Wolf : Mémoires fictifs (+ d'infos) Jim Harrison 10 25/08/2011 265 p. 2264056029 nc.
Du sang sur la soie (+ d'infos) Anne Perry 10 07/07/2011 749 p. 2264055081 nc.
Hôtel des adieux (+ d'infos) Brad Kessler 10 07/07/2011 317 p. 2264051124 7.7 €
La vie à deux (+ d'infos) Dorothy Parker 10 07/07/2011 251 p. 226405445X 8.1 €
Le concile des maudits (+ d'infos) Peter Tremayne 10 07/07/2011 - 226405266X 8.1 €
Le secret de Torrenova (+ d'infos) Simonetta Agnello Hornby 10 07/07/2011 340 p. 2264053100 7.98 €
Avis de tempête sur Cordouan (+ d'infos) Jean-Pierre Alaux 10 16/06/2011 237 p. 2264052287 6.27 €
Harry, revu et corrigé (+ d'infos) Mark Sarvas 10 16/06/2011 344 p. 2264052872 8.1 €
Le règne du chaos (+ d'infos) Paul-C Doherty 10 16/06/2011 318 p. 226405428X 8.4 €
L'Inde en héritage (+ d'infos) Abha Dawesar 10 01/06/2011 347 p. 2264052066 8.4 €
Mississippi (+ d'infos) Hillary Jordan 10 01/06/2011 364 p. 2264053402 8.8 €
Rosa (+ d'infos) Jonathan Rabb 10 01/06/2011 563 p. 2264051426 9.6 €
Venir au monde (+ d'infos) Margaret Mazzantini 10 01/06/2011 668 p. 2264050306 nc.
Bangkok psycho (+ d'infos) John Burdett 10 19/05/2011 437 p. 2264052058 8.8 €
L'homme qui rêvait d'enterrer son passé (+ d'infos) Neil Cross 10 19/05/2011 357 p. 2264052724 7.98 €
La Sibylle de la Révolution (+ d'infos) Nicolas Bouchard Marie-Anne-Adélaïde Lenormand 10 19/05/2011 330 p. 2264052023 8.4 €
La veuve (+ d'infos) Gil Adamson 10 19/05/2011 419 p. 2264050926 8.4 €
Tu pourrais rater intégralement ta vie (+ d'infos) Toni Jordan 10 19/05/2011 253 p. 2264052708 7.5 €
Juliet, Naked (+ d'infos) Nick Hornby 10 05/05/2011 378 p. 2264054271 8.4 €
La fin justifie les moyens (+ d'infos) Anne Perry 10 05/05/2011 414 p. 226405400X 8.4 €
Un safari tout confort (+ d'infos) Alexander McCall Smith 10 05/05/2011 253 p. 2264052279 7.5 €
Une semaine avec ma mère (+ d'infos) William Sutcliffe 10 05/05/2011 316 p. 2264051272 nc.
Attentat à la mangue (+ d'infos) Mohammed Hanif 10 21/04/2011 440 p. 2264051612 8.45 €
Le papillon de papier (+ d'infos) Diane Wei Liang 10 21/04/2011 266 p. 2264053097 7.7 €
Mémoires captives (+ d'infos) Azar Nafisi 10 21/04/2011 443 p. 2264052163 9.1 €
Que le spectacle commence ! (+ d'infos) Ann Featherstone 10 21/04/2011 385 p. 2264050810 8.36 €
Il était une fois un crime (+ d'infos) Lee Jackson 10 07/04/2011 345 p. 2264052074 8.4 €
La mer Noire (+ d'infos) Kéthévane Davrichewy 10 07/04/2011 180 p. 2264052597 7.1 €
La vie financière des poètes (+ d'infos) Jess Walter 10 07/04/2011 305 p. 2264052090 17.1 €
Le destin miraculeux d'Edgar Mint : Suivi de Un noël arizona (+ d'infos) Brady Udall 10 07/04/2011 544 p. 2264054425 9.6 €
Mine de rien (+ d'infos) Patricia Wentworth 10 07/04/2011 342 p. 226405350X 8.1 €
Sex & love addicts (+ d'infos) Lucía Etxebarria 10 07/04/2011 350 p. 2264053038 8.1 €
Un beau jour de printemps (+ d'infos) Yiyun Li 10 07/04/2011 441 p. 2264054034 nc.
Dead boys (+ d'infos) Richard Lange 10 17/03/2011 290 p. 2264051353 8.4 €
L'affaire de la veuve noire (+ d'infos) Jerónimo Trístante 10 17/03/2011 379 p. 2264052864 8.1 €
Les disparus de Monte Angelo (+ d'infos) Thomas Kanger 10 17/03/2011 315 p. 2264053232 nc.
Mathilda Savitch (+ d'infos) Victor Lodato 10 17/03/2011 274 p. 2264052260 7.5 €
Meurtre d'un gigolo (+ d'infos) Mehmet Murat Somer 10 17/03/2011 345 p. 2264052201 8.4 €
No impact man (+ d'infos) Colin Beavan 10 17/03/2011 310 p. 2264052414 8.4 €
Avril enchanté (+ d'infos) Elizabeth von Arnim 10 03/03/2011 366 p. 2264054360 8.1 €
C'est ici que l'on se quitte (+ d'infos) Jonathan Tropper 10 03/03/2011 389 p. 2264054026 8.4 €
La terre des mensonges (+ d'infos) Anne B. Ragde 10 03/03/2011 350 p. 2264051280 8.4 €
Le cheval soleil (+ d'infos) Steinunn Sigurdardóttir 10 03/03/2011 186 p. 2264050691 nc.
Le destin du colporteur (+ d'infos) Kate Sedley 10 03/03/2011 315 p. 2264052635 8.1 €
Le livre de Joe (+ d'infos) Jonathan Tropper 10 03/03/2011 - 2264054298 8.8 €
Les heures (+ d'infos) Michael Cunningham 10 03/03/2011 226 p. 2264054379 7.1 €
Mal tiempo (+ d'infos) David Fauquemberg 10 03/03/2011 283 p. 2264051566 nc.
Perte et fracas (+ d'infos) Jonathan Tropper 10 03/03/2011 370 p. 226405431X 8.1 €
Portrait de femme (+ d'infos) Henry James 10 03/03/2011 690 p. 2264054352 10.2 €
Tout peut arriver (+ d'infos) Jonathan Tropper 10 03/03/2011 380 p. 2264054301 8.1 €
Autoportrait de l'auteur en coureur de fond (+ d'infos) Haruki Murakami 10 17/02/2011 220 p. 2264052007 7.5 €
La chambre des vies oubliées (+ d'infos) Stella Duffy 10 17/02/2011 379 p. 2264052740 7.98 €
La chasse sauvage (+ d'infos) Laetitia Bourgeois 10 17/02/2011 312 p. 226405378X 8.1 €
La librairie des ombres (+ d'infos) Mikkel Birkegaard 10 17/02/2011 507 p. 2264052406 8.8 €
Les enfants de Staline (+ d'infos) Owen Matthews 10 17/02/2011 419 p. 2264051744 8.8 €
Sous les bruyères (+ d'infos) Belinda Bauer 10 17/02/2011 295 p. 2264053542 8.4 €
Beatles (+ d'infos) Lars Saabye Christensen 10 03/02/2011 794 p. 2264053127 9.69 €
Lark et Termite (+ d'infos) Jayne-Anne Phillips 10 03/02/2011 424 p. 2264050942 nc.
Le gang des mégères inapprivoisées : Ou Comment kidnapper un mari quand on n'a rien pour plaire (+ d'infos) Tom Sharpe 10 03/02/2011 218 p. 2264052589 7.5 €
Oscar Wilde et le cadavre souriant (+ d'infos) Gyles Brandreth 10 03/02/2011 414 p. 2264053534 nc.
Une danse avec les démons (+ d'infos) Peter Tremayne 10 03/02/2011 345 p. 2264052651 8.1 €
Bons baisers de Cora Sledge (+ d'infos) Leslie Larson 10 20/01/2011 379 p. 2264052082 nc.
Le nid du serpent (+ d'infos) Pedro Juan Gutiérrez 10 20/01/2011 286 p. 2264052643 8.1 €
Le porteur de mort (+ d'infos) Paul Doherty 10 20/01/2011 344 p. 2264052368 8.8 €
Les disparus de Dublin (+ d'infos) Benjamin Black 10 20/01/2011 436 p. 2264053089 7.98 €
Long week-end (+ d'infos) Joyce Maynard 10 20/01/2011 251 p. 2264052694 7.5 €
Personne bouge (+ d'infos) Denis Johnson 10 20/01/2011 202 p. 2264051795 7.7 €
Car voici que le jour vient : Une enquête de Gilles Bayonne (+ d'infos) Fabienne Ferrère 10 06/01/2011 441 p. 9782264053329 8.1 €
L'ingratitude des fils (+ d'infos) Pierre d' Ovidio 10 06/01/2011 248 p. 2264051086 7.5 €
Le Cercle littéraire des amateurs d'épluchures de patates (+ d'infos) Mary Shaffer 10 06/01/2011 410 p. 9782264053510 8.8 €
Le coeur est un noyau candide (+ d'infos) Lydia Millet 10 06/01/2011 604 p. 2264051663 nc.
Les jours fragiles (+ d'infos) Philippe Besson 10 06/01/2011 151 p. 2264053526 6.6 €
Coeurs blessés (+ d'infos) Victoria Lancelotta 10 02/12/2010 236 p. 2264050551 7.7 €
L'épaisseur des âmes (+ d'infos) Colm Toibin 10 02/12/2010 292 p. 226404912X 8.1 €
La croisade des ténèbres (+ d'infos) Giulio Leoni 10 02/12/2010 408 p. 2264051752 7.79 €
Le chat qui inspectait le sous-sol (+ d'infos) Lilian Jackson Braun 10 02/12/2010 286 p. 2264052813 7.1 €
Les enfants perdus de l'Empire (+ d'infos) R. N. Morris 10 02/12/2010 505 p. 2264048875 nc.
Un Noël en famille (+ d'infos) Jennifer Johnston 10 02/12/2010 254 p. 226405218X nc.
Attention Dieu méchant (+ d'infos) Shalom Auslander 10 18/11/2010 157 p. 226405199X nc.
Des filles de la côte Est (+ d'infos) Courtney Eldridge 10 18/11/2010 236 p. 2264046686 7.13 €
La révélation de Noël (+ d'infos) Anne Perry 10 18/11/2010 184 p. 2264051736 nc.
Le chasseur de gourous (+ d'infos) Tarquin Hall 10 18/11/2010 344 p. 2264047623 8.36 €
Le chat qui connaissait Shakespeare (+ d'infos) Jackson 10 18/11/2010 254 p. 2264052791 nc.
Le chat qui jouait Brahms (+ d'infos) Lilian Jackson Braun 10 18/11/2010 252 p. 2264052783 7.5 €
Une prière pour les damnés (+ d'infos) Peter Tremayne 10 18/11/2010 375 p. 2264052244 8.36 €
Et que le vaste monde poursuive sa course folle (+ d'infos) Colum McCann Jean-Luc Piningre 10 04/11/2010 475 p. 2264052171 8.8 €
L'homme masqué (+ d'infos) Paul Doherty 10 04/11/2010 216 p. 2264042427 6.75 €
L'épopée des Normands de Sicile, Tome 7 : A l'orient du monde (+ d'infos) Viviane Moore 10 04/11/2010 377 p. 2264051418 nc.
La douce tranquillité des samedis (+ d'infos) Alexander McCall Smith 10 04/11/2010 283 p. 2264051809 8.1 €
Mes vies (+ d'infos) Edmund White 10 04/11/2010 480 p. 2264046465 8.8 €
Une partie du tout (+ d'infos) Steve Toltz 10 04/11/2010 790 p. 2264050462 9.12 €
Cette vie (+ d'infos) Karel Schoeman 10 21/10/2010 296 p. 226405056X nc.
Le chat qui mangeait de la laine (+ d'infos) Lilian Jackson Braun 10 21/10/2010 221 p. 2264052759 6.6 €
Le chat qui voyait rouge (+ d'infos) Lilian Jackson Braun 10 21/10/2010 256 p. 2264052767 7.1 €
Le secret de l'abbaye (+ d'infos) Brigitte Aubert 10 21/10/2010 410 p. 2264050578 8.8 €
Presque mort (+ d'infos) Ake Edwardson 10 21/10/2010 572 p. 2264052198 8.65 €
Du sang sur la soie (+ d'infos) Anne Perry 10 07/10/2010 749 p. 2264047895 21.9 €
Faute de choix (+ d'infos) Patricia Wentworth 10 07/10/2010 316 p. 2264050039 8.1 €
L'énigme du second prince : Une enquête de Sugarawa Akitada (+ d'infos) I. J. Parker 10 07/10/2010 412 p. 2264052341 8.8 €
Le ministère des affaires spéciales (+ d'infos) Nathan Englander 10 07/10/2010 475 p. 2264050004 8.36 €
Un loup à ma table (+ d'infos) Augusten Burroughs 10 07/10/2010 267 p. 2264049510 8.1 €
L'ombre en fuite (+ d'infos) Richard Powers 10 16/09/2010 630 p. 2264050977 10.2 €
La rose tatouée suivie de Le doux oiseau de la jeunesse (+ d'infos) Tennessee Williams 10 16/09/2010 256 p. 2264051167 nc.
Lunar Park (+ d'infos) Bret Easton Ellis 10 16/09/2010 472 p. 9782264051134 8.1 €
Souvenez-vous de moi (+ d'infos) Richard Price 10 16/09/2010 390 p. 2264051027 9.69 €
Tableaux d'une exposition (+ d'infos) Patrick Gale 10 16/09/2010 413 p. 2264050470 nc.
Lait noir (+ d'infos) Elif Shafak 10 02/09/2010 351 p. 9782264051820 8.1 €
Les masques de Saint-Marc (+ d'infos) Nicolas Remin 10 02/09/2010 349 p. 2264051574 8.1 €
The anomalies (+ d'infos) Joey Goebel 10 02/09/2010 199 p. 2264050861 nc.
Tragédie à l'Everest (+ d'infos) Jon Krakauer 10 02/09/2010 318 p. 2264051159 8.1 €
Ardoise (+ d'infos) Philippe Djian 10 19/08/2010 127 p. 2264044926 nc.
Fils d'Héliopolis (+ d'infos) James Scudamore 10 19/08/2010 297 p. 2264050454 17.1 €
Hôtel de Lausanne (+ d'infos) Thierry Dancourt 10 19/08/2010 174 p. 9782264049834 6.27 €
L'arbre du père (+ d'infos) Judy Pascoe 10 19/08/2010 192 p. 2264052988 6.17 €
La brève et merveilleuse vie d'Oscar Wao (+ d'infos) Junot Diaz 10 19/08/2010 346 p. 2264049995 8.1 €
Le proscrit (+ d'infos) Sadie Jones 10 19/08/2010 377 p. 2264050292 7.98 €
Dernier été à Paris (+ d'infos) Abha Dawesar Laurence Videloup 10 01/07/2010 439 p. 2264049502 nc.
L'affaire Seymour (+ d'infos) Tim Lott 10 01/07/2010 313 p. 2264047798 nc.
L'assassin des cathédrales (+ d'infos) Yves Josso 10 01/07/2010 346 p. 2264051698 7.7 €
La danse macabre (+ d'infos) Kate Sedley 10 01/07/2010 317 p. 2264050853 nc.
La maison des orphelins (+ d'infos) Helen Dunmore 10 01/07/2010 454 p. 2264048247 8.45 €
Les trois morts d'Isis (+ d'infos) Paul Doherty 10 01/07/2010 348 p. 2264049049 8.8 €
Légendes d'automne (+ d'infos) Jim Harrison 10 25/06/2010 318 p. 226405221X 7.5 €
Croco-deal (+ d'infos) Carl Hiaasen 10 17/06/2010 444 p. 2264051868 8.4 €
L'amour est à la lettre A (+ d'infos) Paola Calvetti 10 17/06/2010 470 p. 2264051019 8.36 €
L'ange aux deux visages (+ d'infos) Nicola Upson 10 17/06/2010 476 p. 2264050012 9.1 €
La nuit descend sur Manhattan (+ d'infos) Colin Harrison 10 17/06/2010 445 p. 2264050284 8.36 €
Les Chroniques d'Edimbourg, Tome 3 : L'amour en kilt (+ d'infos) Alexander McCall Smith 10 17/06/2010 446 p. 2264051116 7.5 €
Les Chroniques d'Edimbourg, Tome 4 : Le monde selon Bertie (+ d'infos) Alexander McCall Smith 10 17/06/2010 416 p. 2264049138 14 €
Des vies sans couleur (+ d'infos) Zoë Wicomb 10 03/06/2010 285 p. 2264048255 7.12 €
La tendresse des loups (+ d'infos) Stef Penney 10 03/06/2010 599 p. 2264049030 9.6 €
Séduction (+ d'infos) Catherine Gildiner 10 03/06/2010 521 p. 226405042X 8.17 €
Décomposition (+ d'infos) J. Eric Miller 10 20/05/2010 204 p. 2264049588 7.13 €
La dernière heure du dernier jour (+ d'infos) Jordi Soler 10 20/05/2010 230 p. 2264049766 7.13 €
Le petit homme de l'Opéra (+ d'infos) Claude Izner 10 20/05/2010 350 p. 2264049197 8.8 €
Les minutes noires (+ d'infos) Martin Solares 10 20/05/2010 467 p. 2264050934 8.45 €
Stone junction : Une grande oeuvrelette alchimique (+ d'infos) Jim Dodge Thomas Pynchon 10 20/05/2010 694 p. 2264048417 9.69 €
31 Songs (+ d'infos) Nick Hornby 10 06/05/2010 200 p. 2264051949 7.1 €
A propos d'un gamin (+ d'infos) Nick Hornby 10 06/05/2010 316 p. 2264051914 7.5 €
Carton jaune (+ d'infos) Nick Hornby 10 06/05/2010 286 p. 2264051922 7.5 €
D'une pierre deux coups (+ d'infos) Patricia Wentworth 10 06/05/2010 314 p. 2264050020 nc.
Haute fidélité (+ d'infos) Nick Hornby Gilles Lergen 10 06/05/2010 4199 p. 2264051906 7.5 €
La bonté, mode d'emploi (+ d'infos) Nick Hornby 10 06/05/2010 281 p. 2264051930 7.5 €
Le club des policiers yiddish (+ d'infos) Michael Chabon 10 06/05/2010 541 p. 2264050446 9.1 €
Le mystère Bellini (+ d'infos) Jason Goodwin 10 06/05/2010 377 p. 2264050713 8.17 €
Vous descendez ? (+ d'infos) Nick Hornby 10 06/05/2010 333 p. 9782264051950 8.1 €
Animals (+ d'infos) Keith Ridgway 10 15/04/2010 285 p. 2264046821 nc.
Au nom du sang (+ d'infos) Magdalen Nabb 10 15/04/2010 287 p. 2264050845 nc.
Enterrez-moi sous le carrelage (+ d'infos) Pavel Sanaïev 10 15/04/2010 265 p. 2264050217 7.5 €
La fureur et l'ennui (+ d'infos) Richard Flanagan 10 15/04/2010 344 p. 2264048794 8.36 €
Lisson Grove (+ d'infos) Anne Perry 10 15/04/2010 438 p. 2264051558 8.8 €
Un don (+ d'infos) Toni Morrison 10 15/04/2010 192 p. 2264048948 7.1 €
Brèves rencontre avec Che Guevara (+ d'infos) Ben Fountain 10 01/04/2010 257 p. 2264051345 nc.
Le diable du Crystal Palace (+ d'infos) Fabrice Bourland 10 01/04/2010 275 p. 2264047941 7.1 €
Le tigre blanc (+ d'infos) Aravind Adiga 10 01/04/2010 318 p. 2264048670 8.4 €
Arbre de fumée (+ d'infos) Denis Johnson Brice Matthieussent 10 18/03/2010 896 p. 2264049952 12 €
Ce que les hommes ne savent pas : Le sexe vu par les femmes (+ d'infos) Lucía Etxebarria 10 18/03/2010 249 p. 2264051183 6.75 €
Le temps du loup (+ d'infos) Thomas Kanger 10 18/03/2010 333 p. 2264051000 8.4 €
Les fantômes de Lhadrung (+ d'infos) Eliot Pattison 10 18/03/2010 570 p. 2264049901 9.69 €
Lost city radio (+ d'infos) Daniel Alarcón 10 18/03/2010 381 p. 2264051337 nc.
Toulouse-Lautrec en rit encore (+ d'infos) Jean-Pierre Alaux 10 18/03/2010 231 p. 9782264050700 nc.
Best Love Rosie (+ d'infos) Nuala O'Faolain 10 04/03/2010 445 p. 2264049944 9.1 €
Le mystère de la maison Aranda (+ d'infos) Jerónimo Trístante 10 04/03/2010 403 p. 2264049057 nc.
Les monstres de Templeton (+ d'infos) Lauren Groff 10 04/03/2010 505 p. 2264049847 nc.
Maître des âmes (+ d'infos) Peter Tremayne 10 04/03/2010 350 p. 2264049634 8.1 €
Communion mortelle (+ d'infos) Frank Tallis 10 18/02/2010 350 p. 2264048042 8.4 €
Démunis (+ d'infos) Katharina Hacker 10 18/02/2010 369 p. 2264049987 nc.
Hécatombe chez les élues de Dieu (+ d'infos) Mehmet Murat Somer 10 18/02/2010 277 p. 2264049774 7.7 €
Le combat des reines (+ d'infos) Paul Doherty 10 18/02/2010 346 p. 2264047372 8.8 €
Saules aveugles, femme endormie (+ d'infos) Haruki Murakami 10 18/02/2010 503 p. 2264044748 8.8 €
Un nom pour un autre (+ d'infos) Jhumpa Lahiri 10 18/02/2010 354 p. 2264044780 nc.
Flight (+ d'infos) Sherman Alexie 10 04/02/2010 200 p. 2264050438 nc.
L'accordeur de pianos (+ d'infos) Pascal Mercier 10 04/02/2010 599 p. 2264049707 10.2 €
Oscar Wilde et le cadavre souriant (+ d'infos) Gyles Brandreth 10 04/02/2010 414 p. 2264046511 nc.
Oscar Wilde et le jeu de la mort (+ d'infos) Gyles Brandreth 10 04/02/2010 460 p. 2264051108 nc.
Un seigneur en otage (+ d'infos) Laetitia Bourgeois 10 04/02/2010 315 p. 2264049731 8.1 €
Alligator Strip (+ d'infos) Chris Haslam 10 21/01/2010 398 p. 2264049006 8.8 €
Bad Monkeys (+ d'infos) Matt Ruff 10 21/01/2010 301 p. 2264051094 6.75 €
L'homme intérieur (+ d'infos) Jonathan Rabb 10 21/01/2010 477 p. 9782264049742 nc.
Quelque chose à te dire (+ d'infos) Hanif Kureishi 10 21/01/2010 568 p. 2264048964 8.4 €
Le pont des soupirs (+ d'infos) Richard Russo 10 07/01/2010 831 p. 2264048859 12.2 €
Le temps de la vengeance (+ d'infos) R. N. Morris 10 07/01/2010 437 p. 2264048867 nc.
Vérité et feuilles de thé (+ d'infos) Alexander McCall Smith 10 07/01/2010 254 p. 2264050195 7.5 €
Bon sang ne saurait mentir, Tome 1 : (+ d'infos) Boris Akounine 10 03/12/2009 381 p. 2264050675 8.4 €
Bon sang ne saurait mentir, Tome 2 : (+ d'infos) Boris Akounine 10 03/12/2009 348 p. 2264050683 8.1 €
De grâce et de vérité (+ d'infos) Jennifer Johnston 10 03/12/2009 217 p. 2264047534 nc.
Gondoles de verre (+ d'infos) Nicolas Remin 10 03/12/2009 376 p. 2264049820 8.1 €
L'épopée des Normands de Sicile, Tome 6 : Les dieux dévoreurs (+ d'infos) Viviane Moore 10 03/12/2009 317 p. 2264049154 8.1 €
Voyages avec ma tante (+ d'infos) Graham Greene 10 03/12/2009 366 p. 2264038004 8.1 €
Des liens trop fragiles (+ d'infos) Brian Morton 10 19/11/2009 411 p. 2264048689 nc.
Hotel de Dream (+ d'infos) Edmund White 10 19/11/2009 237 p. 226404893X nc.
La rose et le chardon (+ d'infos) Kate Sedley 10 19/11/2009 311 p. 2264049642 nc.
Le calice des esprits (+ d'infos) Paul Doherty 10 19/11/2009 350 p. 2264047364 8.8 €
Doggy bag : Saison 6 (+ d'infos) Philippe Djian 10 05/11/2009 261 p. 2264048522 7.5 €
Into the wild : Voyage au bout de la solitude (+ d'infos) Jon Krakauer 10 05/11/2009 284 p. 2264050896 nc.
L'histoire de Bone : Edition spéciale (+ d'infos) Dorothy Allison 10 05/11/2009 414 p. 226405087X nc.
L'étrange disparition d'Esme Lennox (+ d'infos) Maggie O'Farrell 10 05/11/2009 231 p. 2264048565 8.1 €
La cloche du lépreux (+ d'infos) Peter Tremayne 10 05/11/2009 351 p. 2264049618 8.1 €
Le coma (+ d'infos) Alex Garland 10 05/11/2009 100 p. 2264043989 nc.
Les fabuleuses aventures d'un Indien malchanceux qui devint milliardaire : Edition spéciale (+ d'infos) Vikas Swarup 10 05/11/2009 363 p. 2264050888 nc.
Une éducation : scénario (+ d'infos) Nick Hornby 10 05/11/2009 198 p. 2264051078 8.1 €
Je tremble, ô matador (+ d'infos) Pedro Lemebel 10 25/04/2007 188 p. 2264043555 nc.
L'aigle et l'ange (+ d'infos) Juli Zeh 10 15/02/2007 412 p. 2264040203 nc.
La force du passé (+ d'infos) Sandro Veronesi 10 02/11/2006 233 p. 2264036281 nc.
Nick Hornby Coffret en 3 volumes : Haute fidélité ; A propos d'un gamin ; Vous descendez ? (+ d'infos) Nick Hornby 10 02/11/2006 900 p. 2264044594 nc.
Mégalomachine (+ d'infos) Mark Leyner 10 23/10/2006 229 p. 2264041765 nc.
Les années inutiles (+ d'infos) Jorge-Eduardo Benavides 10 19/10/2006 493 p. 2264040831 nc.
Cette sacrée vertu (+ d'infos) Winifred Watson 10 04/10/2006 221 p. 2264041757 nc.
De l'art de dire des conneries : (On Bullshit) (+ d'infos) Harry-G Frankfurt 10 28/08/2006 77 p. 2264043326 nc.
CRASH (+ d'infos) J. G. Ballard 10 08/07/2006 - 2264024798 nc.
La Conjuration des imbéciles (+ d'infos) John Kennedy Toole 10 08/07/2006 478 p. 2264013419 nc.
Le faucon pèlerin (+ d'infos) Glenway Wescott Michael Cunningham 10 15/06/2006 131 p. 2264041528 nc.
Un tour en enfer (+ d'infos) James Waddington 10 01/06/2006 230 p. 2264043148 nc.
24 Heures avant la nuit (+ d'infos) David Benioff 10 15/05/2006 280 p. 2264041269 nc.
La rivière des Indiens (+ d'infos) Jeffrey Lent 10 05/05/2006 392 p. 2264038918 nc.
La ballade des canailles (+ d'infos) Enrico Remmert 10 20/04/2006 277 p. 2264041390 7.7 €
Avec vue sur l'Arno (+ d'infos) Edward-Morgan Forster 10 23/03/2006 287 p. 2264043644 nc.
Les nuits difficiles (+ d'infos) Dino Buzzati 10 20/03/2006 321 p. 2264042818 nc.
Pourpre profond (+ d'infos) Mayra Montero 10 06/02/2006 181 p. 2264042826 nc.
L'illusionniste (+ d'infos) Hari Kunzru 10 02/02/2006 565 p. 2264043997 nc.
Le fond du problème (+ d'infos) Graham Greene 10 01/02/2006 374 p. 226404392X nc.
PAS DE PITIE POUR LES NEVEUX (+ d'infos) P-G Wodehouse 10 01/02/2006 - 2264010622 nc.
Les hommes jaunes (+ d'infos) Urs Widmer 10 19/01/2006 200 p. 2264040734 nc.
Le Pentateuque ou les cinq livres d'Isaac : Sur la vie d'Isaac Jacob Blumenfeld à travers deux guerres mondiales, trois camps de concentration et cinq (+ d'infos) Angel Wagenstein 10 05/01/2006 284 p. 2264041595 nc.
Une vie en chute libre (+ d'infos) Robert Chalmers 10 05/01/2006 516 p. 2264042966 nc.
La lune dans le caniveau (+ d'infos) David Goodis 10 23/12/2005 189 p. 2264041919 nc.
Les logocrates (+ d'infos) George Steiner 10 23/12/2005 251 p. 2264041218 nc.
Ces corps vils (+ d'infos) Evelyn Waugh 10 13/12/2005 279 p. 2264038411 nc.
Le docteur Rubinov (+ d'infos) Chaïm Potok 10 13/12/2005 150 p. 2264041277 nc.
L'affaire Chocolat (+ d'infos) Haïm Gouri 10 01/12/2005 155 p. 2264039361 nc.
Le petit bâtard (+ d'infos) William Kowalski 10 01/12/2005 491 p. 2264037016 nc.
Une petite comédie (+ d'infos) Arthur Schnitzler 10 01/12/2005 313 p. 2264042362 nc.
Ecoute notre voix ô Seigneur... (+ d'infos) Malcolm Lowry 10 17/11/2005 350 p. 2264038047 nc.
Enchanté de vous connaître : Et autres nouvelles (+ d'infos) Arthur Miller 10 17/11/2005 354 p. 2264037709 nc.
Le guérisseur et la mort (+ d'infos) Caroline Roe 10 17/11/2005 380 p. 2264040033 nc.
Orient-Express (+ d'infos) Graham Greene 10 03/11/2005 286 p. 2264037954 nc.
Les équilibres aléatoires (+ d'infos) Angela Vallvey 10 20/10/2005 381 p. 2264038748 nc.
Enterrez-moi debout ! : L'odyssée des Tziganes (+ d'infos) Isabel Fonseca 10 19/10/2005 408 p. 2264038993 nc.
3 Pour voir le roi (+ d'infos) Magnus Mills 10 06/10/2005 184 p. 2264033185 nc.
Franchissez la ligne : Essais 1992-2002 (+ d'infos) Salman Rushdie 10 22/09/2005 4226 p. 2264040920 nc.
La reine de coeur (+ d'infos) William Wilkie Collins 10 15/09/2005 509 p. 2264039647 nc.
L'asymétrie et la vie : Articles et essais 1955-1987 (+ d'infos) Primo Levi 10 09/09/2005 316 p. 2264041250 nc.
Projection privée (+ d'infos) Kazushige Abe 10 09/09/2005 189 p. 2264040467 nc.
Pour la désobéissance civique (+ d'infos) José Bové 10 06/09/2005 311 p. 2264042389 nc.
Au bord du gouffre : Mémoires d'une désintégration (+ d'infos) David Wojnarowicz 10 01/09/2005 319 p. 226404148X nc.
L'Illusionniste (+ d'infos) Hari Kunzru 10 01/09/2005 565 p. 2264039485 nc.
Le danseur de Manhattan (+ d'infos) Andrew Holleran 10 30/08/2005 286 p. 2264039388 nc.
CRASH (+ d'infos) J-G Ballard 10 24/08/2005 - 2264016752 nc.
L'Inde brisée (+ d'infos) V-S Naipaul 10 24/08/2005 224 p. 2264013982 nc.
La Bible de néon (+ d'infos) John Kennedy Toole 10 24/08/2005 - 2264016949 nc.
La Charrette (+ d'infos) B Traven 10 24/08/2005 - 2264010142 nc.
La Geôle (+ d'infos) Hubert Jr Selby 10 24/08/2005 293 p. 2264004428 nc.
La chanson de Salomon (+ d'infos) Toni Morrison 10 24/08/2005 414 p. 2264019018 nc.
Rosa blanca (+ d'infos) B Traven 10 24/08/2005 284 p. 2264010630 nc.
Tar Baby (+ d'infos) Toni Morrison 10 24/08/2005 - 2264018011 nc.
Une Pluie de dollars (+ d'infos) P-G Wodehouse 10 24/08/2005 - 2264006862 nc.
Vacances de Noël (+ d'infos) William-Somerset Maugham 10 24/08/2005 - 2264006765 nc.
Le mal de Montano (+ d'infos) Enrique Vila-Matas 10 02/08/2005 398 p. 226403923X nc.
La dernière prophétie (+ d'infos) Steven Saylor 10 01/08/2005 342 p. 226403968X nc.
La maîtresse de mon amant (+ d'infos) Maggie O'Farrell 10 20/07/2005 360 p. 2264038640 nc.
Qu'est-ce qui fait courir Sammy ? (+ d'infos) Budd Schulberg 10 07/07/2005 431 p. 2264039760 nc.
Dans la forêt (+ d'infos) Edna O'Brien 10 16/06/2005 289 p. 2264039302 nc.
Sexe, amour et amitié (+ d'infos) Paul Burston 10 13/06/2005 314 p. 2264038896 nc.
Le conte de l'assassin (+ d'infos) Margaret Frazer 10 06/06/2005 254 p. 2264040815 nc.
Hiroshima (+ d'infos) John Hersey 10 02/06/2005 204 p. 226404117X nc.
La tendresse sur la peau (+ d'infos) Edmund White 10 23/05/2005 305 p. 2264041978 nc.
Artistes sans art ? (+ d'infos) Jean-Philippe Domecq 10 19/05/2005 287 p. 2264042273 nc.
Espèces en danger (+ d'infos) Louis Bayard 10 04/05/2005 332 p. 226404005X nc.
Le château des maléfices (+ d'infos) Ngaio Marsh 10 04/05/2005 347 p. 2264041188 nc.
Jackpot (+ d'infos) Carl Hiaasen 10 03/05/2005 540 p. 2264041471 nc.
Pacific Park (+ d'infos) Philip-K Dick 10 03/05/2005 284 p. 2264041897 nc.
Le dernier chasseur de sorcières (+ d'infos) James Morrow 10 01/05/2005 680 p. 2264039663 nc.
Crime Unlimited : L'histoired e Harry Starks (+ d'infos) Jake Arnott 10 21/04/2005 414 p. 2264040769 nc.
Dernière saison avant l'amour (+ d'infos) Marly Swick 10 21/04/2005 268 p. 2264038977 nc.
Le samaritain (+ d'infos) Richard Price 10 21/04/2005 508 p. 2264041064 nc.
Ville noire, ville blanche (+ d'infos) Richard Price 10 21/04/2005 620 p. 2264041048 nc.
L'omelette byzantine : Nouvelles (+ d'infos) Saki 10 07/04/2005 278 p. 2264041668 nc.
La faim (+ d'infos) Helen Dunmore 10 07/04/2005 375 p. 2264038586 nc.
La fenêtre ouverte (+ d'infos) Saki 10 07/04/2005 237 p. 2264041676 nc.
La fille de l'orfèvre (+ d'infos) Kate Sedley 10 07/04/2005 302 p. 2264040939 nc.
La chambre noire (+ d'infos) Rachel Seiffert 10 17/03/2005 364 p. 9782264037978 nc.
Véritable histoire du gang Kelly (+ d'infos) Peter Carey 10 03/03/2005 477 p. 2264037563 nc.
Chasse au loup (+ d'infos) Armand Cabasson 10 01/03/2005 283 p. 226404120X nc.
Les enfants de Saint-Pétersbourg (+ d'infos) Sergueï Bolmat 10 17/02/2005 317 p. 2264039493 nc.
Mademoiselle O (+ d'infos) Vladimir Nabokov 10 17/02/2005 240 p. 2264035382 nc.
Animal tropical (+ d'infos) Pedro-Juan Gutierrez 10 01/02/2005 406 p. 226403775X nc.
Le conseiller d'Etat (+ d'infos) Boris Akounine 10 01/02/2005 463 p. 2264039418 nc.
Manifeste contre la pauvreté (+ d'infos) Martin Hirsch Jérôme Cordelier 10 20/01/2005 169 p. 2264040823 nc.
Aristote et les secrets de la vie (+ d'infos) Margaret Doody 10 07/01/2005 429 p. 2264038276 nc.
Mickey le rouge (+ d'infos) Tom Robbins 10 06/01/2005 311 p. 2264040068 nc.
L'Amérique pauvre : Comment ne pas survivre en travaillant (+ d'infos) Barbara Ehrenreich 10 05/01/2005 334 p. 2264041404 nc.
Danseur (+ d'infos) Colum McCann 10 01/01/2005 415 p. 226404067X 8.8 €
1666 (+ d'infos) Geraldine Brooks 10 02/12/2004 334 p. 2264038381 nc.
Le voyage vertical (+ d'infos) Enrique Vila-Matas 10 02/12/2004 285 p. 2264036141 nc.
Mort au champagne (+ d'infos) Ngaio Marsh 10 02/12/2004 223 p. 2264040858 nc.
Fleur de nuit (+ d'infos) Shani Mootoo 10 01/12/2004 282 p. 2264035390 nc.
Tolstoï ou Dostoïevski (+ d'infos) George Steiner 10 01/12/2004 413 p. 2264036842 nc.
1912 + 1 (+ d'infos) Leonardo Sciascia 10 04/11/2004 114 p. 2264039884 nc.
Une histoire simple (+ d'infos) Leonardo Sciascia 10 04/11/2004 73 p. 2264039892 nc.
La moitié d'une vie (+ d'infos) V-S Naipaul 10 01/11/2004 230 p. 2264037547 nc.
Coffret Michael Moore : Dégraissez-moi ca ! ; Mike contre-attaque ! ; Tous aux abris ! (+ d'infos) Michael Moore 10 25/10/2004 774 p. 2264040963 nc.
Lucia Etxebarria Coffret en 3 volumes : Amour, Prozac et autres curiosités ; Beatriz et les corps célestes ; De l'amour et autres mensonges (+ d'infos) Lucía Etxebarria 10 25/10/2004 1103 p. 2264040971 nc.
Les baleines de Quissico (+ d'infos) Mia Couto 10 21/10/2004 242 p. 2264033975 nc.
Liberté, égalité, sexualité : Actualité politique des questions sexuelles (+ d'infos) Clarisse Fabre Eric Fassin Hugues Jallon 10 21/10/2004 367 p. 2264040181 nc.
Le monstre des Hawkline (+ d'infos) Richard Brautigan 10 07/10/2004 201 p. 2264040572 nc.
Réflexions sur le génocide (+ d'infos) Pierre Vidal-Naquet 10 07/10/2004 341 p. 2264037237 nc.
Un général sudiste de Big Sur (+ d'infos) Richard Brautigan 10 07/10/2004 175 p. 2264040564 nc.
Souvenirs et divagations (+ d'infos) Hanif Kureishi 10 01/10/2004 416 p. 2264038233 nc.
La route de Sampo (+ d'infos) Sok-Yong Hwang 10 01/09/2004 141 p. 2264039868 nc.
Monsieur Han (+ d'infos) Sok-Yong Hwang 10 01/09/2004 126 p. 2264039876 nc.
Objectif (+ d'infos) Hitonari Tsuji 10 01/09/2004 92 p. 2264040335 nc.
L'espoir est une chose ridicule (+ d'infos) Aleksandar Hemon 10 01/08/2004 306 p. 2264038683 nc.
Le Conte de l'évêque (+ d'infos) Margaret Frazer 10 01/06/2004 238 p. 2264040408 nc.
L'Homme tranquille (+ d'infos) Maurice Walsh 10 19/05/2004 316 p. 2264039639 nc.
Le Conte des deux frères (+ d'infos) Margaret Frazer 10 19/05/2004 288 p. 2264035544 nc.
Pêche en eau trouble (+ d'infos) Carl Hiaasen 10 19/05/2004 477 p. 2264040122 nc.
Un mariage à la mode (+ d'infos) Joe Keenan 10 19/05/2004 364 p. 2264039450 8.1 €
Une conspiration de papier (+ d'infos) David Liss 10 19/05/2004 548 p. 2264035587 nc.
L'Homme au balcon (+ d'infos) Maj Sjowall 10 19/02/2004 254 p. 2264038500 nc.
Roseanna : Les enquêtes de l'inspecteur Beck (+ d'infos) Maj Sjowall 10 19/02/2004 254 p. 2264038497 nc.
La fille perdue du bonheur (+ d'infos) Geling Yan 10 10/02/2004 294 p. 2264036273 nc.
Mauvais Garçon (+ d'infos) Willy Russell 10 10/02/2004 482 p. 2264036907 nc.
La bouche pleine de mots (+ d'infos) Camilla Gibb 10 27/01/2004 254 p. 2264036745 nc.
Paysages aléatoires (+ d'infos) Peter Stamm 10 13/01/2004 224 p. 226403713X nc.
Love Song (+ d'infos) Nikki Gemmell 10 17/04/2003 325 p. 2264035900 nc.
A tire-d'aile (+ d'infos) Roald Dahl 10 03/04/2003 223 p. 2264034343 nc.
Retour à Sweetboro (+ d'infos) Jeffrey Lent 10 01/04/2003 509 p. 2264034777 nc.
Discours de la méthode suivi des Méditations (+ d'infos) René Descartes 10 20/12/2002 313 p. 226403694X nc.
Un nommé Schulz (+ d'infos) Ugo Riccarelli 10 07/03/2002 218 p. 2264034289 nc.
L'Enfant des eaux (+ d'infos) Grimsley 10 22/11/2001 246 p. 2264029390 nc.
L'Ours (+ d'infos) Engel marian 10 22/11/2001 208 p. 2264030658 nc.
Correspondance de Paul Léautaud, tome 2 (+ d'infos) Paul Léautaud Marie Dormoy 10 18/10/2001 576 p. 2264032278 nc.
Fuckwoman (+ d'infos) Warwick Collins 10 01/10/2001 319 p. 2264036214 nc.
La musique du père (+ d'infos) Dermot Bolger 10 17/05/2001 426 p. 2264030550 nc.
Les chemins parcourus (+ d'infos) Edith Wharton 10 02/05/2001 382 p. 2264031891 nc.
Mon vélo et autres amis (+ d'infos) Henry Miller 10 16/11/2000 264 p. 2264025913 nc.
Le Sang d'Aphrodite (+ d'infos) Elena Arseneva 10 31/12/1999 408 p. 226403730X 7.98 €
Oeuvres libres (+ d'infos) Paul Verlaine 10 16/11/1999 190 p. 2264029552 nc.
Champion : Et autres nouvelles (+ d'infos) Ring Lardner 10 02/11/1999 252 p. 2264003626 nc.
Entre chien et loup (+ d'infos) Jim Harrison 10 12/09/1999 374 p. 2264001119 nc.
Grain de grenade (+ d'infos) Edith Wharton Florence Lévy-Paolini 10 12/09/1999 204 p. 2264018682 nc.
Le sceau de Vladimir (+ d'infos) Elena Arseneva 10 12/09/1999 281 p. 2264025859 7.13 €
The servant et autres nouvelles (+ d'infos) Robin Maugham 10 12/09/1999 285 p. 2264018747 nc.
UN MONDE D'AMOUR (+ d'infos) Elizabeth Bowen 10 12/09/1999 223 p. 2264023759 nc.
Le chapeau vert (+ d'infos) Michael Arlen 10 15/04/1999 286 p. 2264023317 nc.
Mêlée ouverte au Zoulouland (+ d'infos) Tom Sharpe 10 01/01/1999 - 2264014067 nc.
Le VIIe Plan de développement économique et social : 1976-198 (+ d'infos) Congwen Shen 10 02/11/1998 247 p. 2264001224 nc.
Petits Désordres sans importance (+ d'infos) Deborah Eisenberg 10 21/10/1998 253 p. 226402741X nc.
J'irai cracher sur vos tombes (+ d'infos) Boris Vian 10 13/10/1998 - 2264005610 nc.
Kimono pour un cadavre (+ d'infos) James Melville 10 17/09/1998 275 p. 2264026596 nc.
Correspondance : Lettres suivi de correspondance avec Trajan (+ d'infos) Pline le Jeune 10 14/08/1998 444 p. 2264027207 nc.
Transactions dans une monnaie étrangère (+ d'infos) Deborah Eisenberg 10 06/06/1998 253 p. 2264027274 nc.
Le retour de Tarzan (+ d'infos) Edgar Rice Burroughs 10 28/05/1998 315 p. 2264027363 nc.
Parmi les hooligans (+ d'infos) Bill Buford 10 04/05/1998 359 p. 2264022744 nc.
Partition vénitienne (+ d'infos) Pier-Maria Pasinetti 10 09/04/1998 377 p. 2264022116 nc.
L'écriture et l'existence (+ d'infos) Nadine Gordimer 10 01/04/1998 172 p. 2264026731 nc.
La ronde de la musique du temps, Tome 8 : Art martial (+ d'infos) Anthony Powell 10 12/03/1998 250 p. 2264023368 nc.
Histoire de Juliette : Tome 1 (+ d'infos) Donatien-Alphonse-François de 10 14/11/1997 590 p. 2264026324 nc.
La grâce de Dieu (+ d'infos) Bernard Malamud 10 26/09/1997 286 p. 2264002328 nc.
Le Trésor de la Sierra Madre (+ d'infos) B Traven 10 01/05/1997 282 p. 2264010150 nc.
Les Aphrodites ou fragments thali-priapiques pour servir à l'histoire du plaisir : Tome 1 (+ d'infos) Andréa de Nerciat 10 01/04/1997 531 p. 2264025573 nc.
Les marginaux : Femmes, juifs et homosexuels dans la littérature européenne (+ d'infos) Hans Mayer 10 01/09/1996 535 p. 2264023740 nc.
Arden lointain (+ d'infos) Jim Morrison 10 01/06/1996 157 p. 2264017651 nc.
L'oeil le plus bleu (+ d'infos) Toni Morrison 10 01/05/1996 218 p. 2264022760 nc.
L'archipel aux sirènes (+ d'infos) Somerset Maugham 10 01/03/1996 287 p. 2264021918 nc.
Quelques jours avant la nuit (+ d'infos) Paul Scott 10 29/02/1996 316 p. 2264021640 nc.
L'homme dans le tiroir (+ d'infos) Bernard Malamud 10 30/11/1995 249 p. 2264002344 nc.
Le destin de Darcy Dancer, gentleman (+ d'infos) James-Patrick Donleavy 10 01/10/1995 511 p. 2264001542 nc.
L'Innocence de l'âge (+ d'infos) Neil Bissoondath 10 29/08/1995 380 p. 226400228X nc.
CERCUEILS DE ZINC (+ d'infos) Alexievitch Svetlana 10 01/07/1995 - 2264017147 nc.
La Bellarosa connection (+ d'infos) John Saul Saul Bellow 10 01/07/1995 165 p. 2264017457 nc.
La Nichina : Mémoires inédits de Lorenzo Vendramin, histoire d'une courtisane vénitienne (+ d'infos) Hugues Rebell 10 01/07/1995 - 2264008717 nc.
Le Cinéma italien Tome 2 : Entretiens avec Gianni Amelio, Franco Brusati, Renato Castellani, Damiano Damiani... [etc.] (+ d'infos) Jean Antoine Gili 10 01/07/1995 - 2264004843 nc.
Vers l'autre flamme : Après seize mois dans l'URSS, 1927-1928, confession pour vaincus (+ d'infos) Panaït Istrati 10 01/07/1995 - 2264002646 nc.
Au long du grand canal (+ d'infos) Zhang Xinxin 10 01/06/1995 288 p. 2264020873 nc.
Tous des voleurs (+ d'infos) Edward Anderson 10 12/05/1995 289 p. 2264000996 nc.
Bakounine et les autres : Esquisses et portraits contemporains d'un révolutionnaire (+ d'infos) Alexander Lernet-Holenia 10 01/05/1995 265 p. 2264000872 nc.
Farce amère (+ d'infos) Craig Nova 10 01/04/1995 223 p. 2264019220 nc.
L'écharde : Chroniques d'un état de crise (+ d'infos) Edmund White Mars-Jones 10 01/03/1995 - 226402237X nc.
Les tours de Trébizonde (+ d'infos) Rose Macaulay 10 19/12/1994 - 2264000724 nc.
Vox (+ d'infos) Nicholson Baker 10 15/11/1994 186 p. 2264020458 nc.
Le Supplice des Week-Ends (+ d'infos) Benchley 10 04/11/1994 275 p. 226402044X nc.
Bon Soldat (+ d'infos) Maddox Ford 10 03/11/1994 286 p. 226400083X nc.
Sur l'art et la littérature (+ d'infos) William Kennedy 10 01/11/1994 294 p. 2264000201 nc.
Journaux camisards : 1700-1715 (+ d'infos) Neil Bissoondath 10 01/09/1994 476 p. 2264000694 nc.
Pas un mot à l'ambassadeur (+ d'infos) Nancy Mitford 10 01/09/1994 317 p. 2264020415 nc.
Les Coeurs détruits (+ d'infos) Elizabeth Bowen 10 01/06/1994 445 p. 2264019808 nc.
Le safari de votre vie (+ d'infos) Nadine Gordimer 10 16/05/1994 317 p. 2264002859 nc.
Plan d'évasion (+ d'infos) Adolfo Bioy Casares 10 01/04/1994 198 p. 2264016922 nc.
Les termitières de la savane (+ d'infos) Chinua Achebe 10 01/03/1994 317 p. 2264018089 nc.
L'Hiver dans le sang (+ d'infos) James Welch 10 18/02/1994 212 p. 226400018X nc.
Mort d'un pornographe (+ d'infos) Jacques Werup 10 04/02/1994 272 p. 2264019190 nc.
Le masseur mystique (+ d'infos) V-S Naipaul 10 01/02/1994 286 p. 2264019123 nc.
Hamilton Stark (+ d'infos) Russell Banks 10 01/01/1994 379 p. 2264019263 nc.
Las Vegas parano : Une équipée sauvage au coeur du rêve américain (+ d'infos) Hunter S. Thompson 10 01/01/1994 208 p. 2264019883 nc.
Le tueur de daims (+ d'infos) James Fenimor Cooper 10 01/01/1994 575 p. 2264001313 nc.
Dieu par-dessus bord (+ d'infos) Jane Gardan 10 01/12/1993 236 p. 2264016027 nc.
Conférences psychanalytiques à l'usage des malades prononcées au sanatorium de Baden-Baden, tome 1 (+ d'infos) Georg Groddeck 10 10/09/1993 476 p. 2264018623 nc.
Journal japonais (+ d'infos) Richard Brautigan 10 01/09/1993 204 p. 2264019204 nc.
A REBOURS / LE DRAGEOIR AUX EPICES (+ d'infos) Joris-Karl Huysmans 10 27/08/1993 - 2264006390 nc.
Au pays des hommes nus (+ d'infos) Tobias Schneebaum 10 01/08/1993 221 p. 2264019026 nc.
L'esprit des collines (+ d'infos) Dan O'Brien 10 01/08/1993 336 p. 2264018313 nc.
Le Fugitif (+ d'infos) Somerset Maugham 10 01/08/1993 257 p. 2264014164 nc.
J'suis pas plus con qu'un autre (+ d'infos) Henry Miller Joseph Delteil 10 25/06/1993 - 2264017465 nc.
Parages des voies mortes (+ d'infos) William-S Burroughs 10 08/06/1993 - 2264013702 nc.
L'Enigme de l'arrivée (+ d'infos) Naipaul 10 29/04/1993 445 p. 226401749X nc.
Le collier du prêtre Jean (+ d'infos) John Buchan 10 28/04/1993 348 p. 2264016361 nc.
Madame de Treymes et autres nouvelles (+ d'infos) Edith Wharton 10 28/04/1993 - 2264016485 nc.
La geste du roi Arthur (+ d'infos) Robert Wace 10 02/04/1993 343 p. 2264012528 nc.
L'éternel petit-bourgeois : Roman d'éducation en trois parties (+ d'infos) Odön von Horvath 10 01/04/1993 - 2264018216 nc.
La colline des potences (+ d'infos) Dorothy-M Johnson 10 01/04/1993 251 p. 2264019093 nc.
Les beaux jours de Firozsha Baag (+ d'infos) Rohinton Mistry 10 01/04/1993 369 p. 2264019212 nc.
Le marin blanc du président (+ d'infos) Jerome Charyn 10 25/03/1993 - 226401878X nc.
Madame Solario (+ d'infos) Anonyme 10 17/03/1993 506 p. 2264018569 nc.
Rites d'automne : Le voyage d'un fauconnier à travers l'Ouest américain (+ d'infos) Dan O'Brien 10 05/03/1993 - 2264018445 nc.
Sable lourd (+ d'infos) Anatoli Rybakov 10 01/03/1993 365 p. 2264016175 nc.
Le livre de Blam (+ d'infos) Alexandre Tisma 10 01/02/1993 283 p. 2264015632 nc.
Marchand de liberté. avec en préface Le danseur de flamenco (+ d'infos) Stanley Elkin 10 01/02/1993 224 p. 2264018879 nc.
Pour toujours (+ d'infos) Vergilio Ferreira 10 22/01/1993 348 p. 2264015349 nc.
Chroniques de jazz (+ d'infos) Boris Vian 10 08/01/1993 - 2264008776 nc.
Ennuis de noce (+ d'infos) Stig Dagerman 10 08/01/1993 - 2264014245 nc.
La Gloire du vaurien (+ d'infos) René-Nicolas Ehni 10 08/01/1993 181 p. 2264013214 nc.
Mademoiselle Christina (+ d'infos) Mircea Eliade 10 08/01/1993 - 2264012773 nc.
Un Homme se penche sur son passé (+ d'infos) Constantin-Weyer 10 08/01/1993 - 2264005181 nc.
Mère et fils (+ d'infos) Ivy Compton-Burnett 10 01/12/1992 - 226401282X nc.
La fleur sacrée (+ d'infos) Henry Rider Haggard 10 27/11/1992 - 2264015551 nc.
L'oiseau d'Amérique (+ d'infos) Walter Tevis 10 01/11/1992 384 p. 2264016167 nc.
Le long séjour ; La modéliste (+ d'infos) Régine Detambel 10 11/09/1992 - 2264017686 nc.
Un diable au paradis (+ d'infos) Henry Miller 10 01/06/1992 188 p. 2264017473 nc.
L'opéra des gueux (+ d'infos) Kaïtô Takeshi 10 01/02/1992 312 p. 2264014555 nc.
Total recall (+ d'infos) Philip-K Dick 10 01/10/1991 379 p. 2264016868 nc.
Le songe des héros (+ d'infos) Adolfo Bioy Casares 10 01/08/1991 218 p. 2264016221 nc.
Metropolis : I [love] New York (+ d'infos) Jerome Charyn 10 01/04/1991 - 2264014962 nc.
La jeune fille au ballon rouge (+ d'infos) Dominique de Roux 10 01/03/1991 - 2264013680 nc.
L'apprenti sorcier (+ d'infos) Hanns-Heinz Ewers 10 01/02/1991 349 p. 2264016108 nc.
Le Temple (+ d'infos) Stephen Spender 10 01/01/1991 311 p. 2264016043 nc.
Un Instant d'éternité : Et autres nouvelles (+ d'infos) E. M. (Edward Morgan) Forster 10 01/01/1991 306 p. 2264016051 nc.
Jack Legs Diamond (+ d'infos) William Kennedy 10 01/11/1990 382 p. 226400021X nc.
Un Train d'or pour la Crimée (+ d'infos) Michael Crichton 10 01/06/1990 - 2264013966 nc.
Une Nuit de chien (+ d'infos) Juan-Carlos Onetti 10 01/02/1990 301 p. 2264013613 nc.
Darling Bill : Une histoire d'amour au Far West (+ d'infos) Jerome Charyn 10 01/01/1990 385 p. 2264014504 nc.